Starlink 3658

operational
NORAD ID: 52107 Int'l Des: 2022-029 Owner: SPXS Country: US Constellation: starlink
LEOCIRCULAR

关于 Starlink 3658

正在加载描述...

实时位置

正在加载3D地球...

即将过境

高度历史

Altitude vs Time

uPlot chart will show altitude changes over time

两行轨道根数

1 52107U 22029V 25305.25311165 .00001761 00000-0 12871-3 0 9996
2 52107 53.2165 295.6970 0001625 94.4537 265.6641 15.08839051201398
Epoch: Nov 1, 2025 • Age: 19 hours

当前状态

高度 553.9 km
速度 7.58 km/s
星下点 -40.47°S, 101.15°E
发射日期 Mar 19, 2022
运行时间 3.6 years
类型 internet

技术详情

分类 Payload
质量 297.00 kg
干质量 275.00 kg
总质量 297.00 kg
长度 0.20 m
直径 2.80 m
跨度 9.00 m
形状 Box + pan
制造商 SPXS
平台类型 Starlink
阶段状态 In Orbit
所有者/国家 SPXS/US

大型星座

Loading constellations...